Location: Leedale
(52.5833°N, 114.4833°W)
Time: 04:59:39
(UTC+00:00)

BlueWalker 3 - Pass Details

Date: 11 August 2024
Orbit: 476 x 487 km, 53.2° (Epoch: 09 September)

Event Time Altitude Azimuth Distance (km) Brightness Sun altitude
Exits shadow 11:03:47 11° 255° (WSW) 1,601 3.9 -9.8°
Maximum altitude 11:07:23 86° 168° (SSE) 501 1.9 -9.4°
Drops below altitude 10° 11:11:21 - 79° (ENE) 1,742 5.8 -8.9°
Sets 11:13:24 0° 79° (ENE) 2,577 6.8 -8.7°
